[[{"header":{"parameterUnit":"m.s-1","parameterCategory":1,"la1":30.2991,"la2":30.254,"lo1":-89.0895,"lo2":-89.0444,"dx":0.0017,"dy":0.0017,"nx":28,"ny":28,"refTime":"2022-12-30T15:00:00:Z","depth":0,"parameterNumber":2,"parameterNumberName":"U-component_of_WINDS"},"data":[0,0,0,0,0,0,0,0,0,0,0,0,0,0,0,0,0,0,0,0,0,0,0,0,0,0,0,0,0,0,0,0,0,0,0,0,0,0,0,0,0,0,0,0,0,0,0,0,0,0,0,0,0,0,0,0,0,0,2.2662,2.2662,0,2.2629,2.2628,2.2628,2.2605,2.2605,2.2605,2.2605,2.2569,2.2568,2.2567,0,0,0,0,0,0,0,0,0,0,0,0,0,2.2708,2.2707,2.2662,2.2662,2.2661,2.2629,2.2628,2.2628,2.2605,2.2605,2.2605,2.2605,2.2569,2.2568,2.2567,0,0,0,0,0,0,0,0,0,0,0,0,0,2.2683,2.2707,2.2662,2.2646,2.2645,2.2629,2.2628,2.2628,2.2605,2.2605,2.2605,2.2605,2.257,2.2568,2.2567,2.2564,0,0,2.2563,2.2563,0,0,0,0,0,0,0,0,2.2684,2.2681,2.2649,2.2647,2.2645,2.2621,2.2631,2.2606,2.2605,2.262,2.2605,2.2605,2.2586,2.2584,2.2578,2.2563,2.2561,2.2563,2.2563,2.2562,2.2562,0,0,0,0,0,0,0,2.2686,2.2682,2.2649,2.2649,2.2646,2.2641,2.2637,2.2626,2.2605,2.2619,2.2617,2.2614,2.2585,2.2579,2.2577,2.2561,2.2563,2.2562,2.2562,2.2561,2.2545,2.2545,0,0,0,0,0,0,2.269,2.2684,2.265,2.2648,2.2665,2.2641,2.2636,2.2629,2.2605,2.2601,2.2614,2.2613,2.2581,2.2578,2.2576,2.2573,2.2562,2.2561,2.256,2.2545,2.2545,2.2545,0,0,0,0,0,0,2.2691,2.2687,2.2651,2.2665,2.2661,2.264,2.2632,2.2628,2.2622,2.2601,2.2597,2.2611,2.2581,2.2577,2.2568,2.2571,2.256,2.2559,2.2544,2.2545,2.2545,2.2566,0,0,0,0,0,0,2.2693,2.2688,2.2686,2.2666,2.266,2.2644,2.2632,2.2628,2.262,2.2619,2.2598,2.2594,2.2581,2.257,2.2567,2.2569,2.2558,2.2544,2.2545,2.2545,2.2565,2.2567,2.2569,0,0,0,0,0,2.2694,2.2692,2.2686,2.2682,2.2657,2.2644,2.2641,2.2626,2.2621,2.2619,2.2606,2.2595,2.2572,2.2569,2.2566,2.2568,2.2544,2.2544,2.2545,2.2564,2.2567,2.2569,0,0,0,0,0,0,2.2711,2.2689,2.2682,2.2673,2.2661,2.2641,2.2638,2.2629,2.2617,2.2616,2.2597,2.2593,2.2586,2.2576,2.2574,2.2566,2.2556,2.2556,2.2572,2.2575,2.2577,2.2579,2.2557,0,0,0,0,0,2.2715,2.2706,2.2687,2.2681,2.2675,2.2658,2.2652,2.2642,2.2628,2.2622,2.2609,2.2596,2.2586,2.258,2.2569,2.2564,2.256,2.2564,2.2566,2.2568,2.2568,2.2567,2.2569,2.2548,2.2548,2.2548,0,0,2.272,2.2707,2.2702,2.2684,2.2674,2.2666,2.2654,2.2645,2.264,2.2621,2.2612,2.2602,2.2587,2.2581,2.2577,2.2572,2.2573,2.2568,2.257,2.2569,2.2568,2.257,2.2572,2.2548,2.2548,2.2548,0,0,2.2727,2.2715,2.271,2.2701,2.2686,2.2675,2.2674,2.2656,2.2649,2.264,2.2627,2.2621,2.2603,2.2594,2.2587,2.2595,2.2584,2.2592,2.2602,2.2602,2.2603,2.2605,2.2609,2.2611,2.2592,2.2592,2.2592,0,2.2735,2.2723,2.2709,2.2702,2.2696,2.2681,2.2676,2.2668,2.265,2.2646,2.2641,2.2621,2.261,2.2602,2.2605,2.2599,2.2598,2.2594,2.2604,2.2606,2.2607,2.2611,2.2612,2.2593,2.2593,2.2593,2.2593,0,2.2736,2.2728,2.2726,2.2711,2.2704,2.2699,2.2685,2.268,2.2671,2.2661,2.2654,2.264,2.2628,2.2626,2.2616,2.2618,2.2616,2.2608,2.2598,2.261,2.2614,2.2615,2.2595,2.2594,2.2594,2.2594,0,0,2.2749,2.273,2.2729,2.2724,2.2708,2.2702,2.2697,2.2687,2.2684,2.2673,2.2669,2.2657,2.2651,2.2643,2.2633,2.2632,2.2642,2.2625,2.2624,2.263,2.2646,2.2653,2.2655,2.2636,2.2636,2.2636,2.2648,0,2.2754,2.2745,2.2734,2.2729,2.2723,2.271,2.2707,2.2697,2.2689,2.2683,2.2673,2.2666,2.2657,2.2653,2.2652,2.2641,2.2645,2.264,2.2633,2.2633,2.2638,2.2656,2.2662,2.2674,2.2649,2.2649,2.2649,0,2.2758,2.275,2.2745,2.2733,2.273,2.2727,2.2719,2.2713,2.2703,2.2697,2.2691,2.2681,2.2676,2.2668,2.2663,2.266,2.2657,2.2652,2.2652,2.2651,2.2642,2.2656,2.2677,2.2679,2.2651,2.2651,2.2651,0,2.277,2.2758,2.2755,2.275,2.2736,2.2735,2.2729,2.2719,2.2714,2.2707,2.2704,2.2696,2.2692,2.2686,2.2675,2.267,2.2672,2.2662,2.2668,2.2668,2.2668,2.2668,2.2689,2.2665,2.2665,2.2665,2.2665,0,2.2777,2.2775,2.2761,2.2758,2.2757,2.2745,2.2743,2.2736,2.2728,2.2725,2.2713,2.2711,2.2696,2.2692,2.2683,2.2682,2.2679,2.2675,2.2673,2.2676,2.2677,2.2674,2.2673,2.2666,2.2666,2.2665,2.2665,0,2.279,2.278,2.2776,2.2764,2.2761,2.2761,2.2751,2.2749,2.2741,2.2738,2.2736,2.2724,2.2719,2.2708,2.2699,2.2694,2.2695,2.269,2.2698,2.2697,2.2704,2.2704,2.2723,2.2726,2.27,2.27,2.2701,0,2.2795,2.2793,2.2783,2.2781,2.2776,2.2772,2.2768,2.2757,2.2754,2.2745,2.2745,2.274,2.2735,2.2728,2.2718,2.2713,2.2708,2.2716,2.2707,2.2712,2.271,2.271,2.2711,2.2717,2.2718,2.2718,2.2718,0,2.2805,2.2802,2.2797,2.2792,2.2789,2.2784,2.2779,2.2778,2.2766,2.2763,2.2759,2.2755,2.2749,2.2744,2.2738,2.2732,2.2724,2.2722,2.2723,2.2726,2.2732,2.273,2.2704,2.2721,2.2721,2.272,2.272,2.272,2.2815,2.2814,2.2808,2.2804,2.28,2.2796,2.2795,2.2788,2.2785,2.2779,2.2773,2.2771,2.2764,2.2755,2.275,2.2748,2.2744,2.2745,2.2745,2.2746,2.2748,2.2732,2.2747,2.2747,2.2747,2.2747,2.2747,0,2.2826,2.2822,2.2819,2.2813,2.2811,2.2806,2.28,2.2799,2.2797,2.2792,2.2789,2.2785,2.2782,2.2774,2.277,2.277,2.2767,2.277,2.277,2.2769,2.2752,2.2752,2.2773,2.2773,2.2773,2.2773,2.2773,2.2773,2.2831,2.2831,2.2827,2.2825,2.2821,2.282,2.2817,2.2815,2.2811,2.2808,2.2806,2.2802,2.2796,2.2792,2.2789,2.2787,2.2787,2.2791,2.2788,2.2772,2.277,2.2767,2.2767,2.2791,2.2791,2.2805,2.2805,2.2805]},{"header":{"parameterUnit":"m.s-1","parameterCategory":1,"la1":30.2991,"la2":30.254,"lo1":-89.0895,"lo2":-89.0444,"dx":0.0017,"dy":0.0017,"nx":28,"ny":28,"refTime":"2022-12-30T15:00:00:Z","depth":0,"parameterNumber":3,"parameterNumberName":"V-component_of_WINDS"},"data":[0,0,0,0,0,0,0,0,0,0,0,0,0,0,0,0,0,0,0,0,0,0,0,0,0,0,0,0,0,0,0,0,0,0,0,0,0,0,0,0,0,0,0,0,0,0,0,0,0,0,0,0,0,0,0,0,0,0,1.3215,1.3216,0,1.3312,1.3313,1.3314,1.3383,1.3384,1.3384,1.3385,1.3477,1.3479,1.3481,0,0,0,0,0,0,0,0,0,0,0,0,0,1.3083,1.3085,1.3215,1.3216,1.3217,1.3311,1.3313,1.3314,1.3383,1.3384,1.3385,1.3385,1.3476,1.3478,1.3481,0,0,0,0,0,0,0,0,0,0,0,0,0,1.3156,1.3086,1.3214,1.3263,1.3268,1.3311,1.3313,1.3314,1.3383,1.3384,1.3385,1.3386,1.3476,1.3478,1.3481,1.3481,0,0,1.349,1.3491,0,0,0,0,0,0,0,0,1.3152,1.3161,1.3255,1.326,1.3266,1.3336,1.33,1.337,1.3383,1.3339,1.3385,1.3386,1.3429,1.3436,1.3452,1.3485,1.3489,1.349,1.3492,1.3493,1.3494,0,0,0,0,0,0,0,1.3147,1.3157,1.3253,1.3256,1.3263,1.3278,1.3289,1.3314,1.3378,1.3343,1.3348,1.3359,1.3432,1.3449,1.3454,1.349,1.349,1.3492,1.3494,1.3495,1.3529,1.3528,0,0,0,0,0,0,1.3135,1.3152,1.325,1.3256,1.321,1.328,1.3292,1.3313,1.3378,1.3389,1.3359,1.3362,1.3443,1.3451,1.3458,1.3462,1.3493,1.3496,1.3497,1.353,1.3529,1.3528,0,0,0,0,0,0,1.3132,1.3143,1.3246,1.3206,1.322,1.3281,1.3303,1.3314,1.3331,1.3389,1.34,1.3364,1.3444,1.3454,1.3475,1.3466,1.3497,1.3499,1.3531,1.3529,1.3528,1.3471,0,0,0,0,0,0,1.3128,1.3141,1.3143,1.3205,1.3222,1.3263,1.3303,1.3315,1.3337,1.3342,1.3398,1.3408,1.3446,1.3471,1.3478,1.3471,1.3502,1.3532,1.353,1.3529,1.3474,1.3468,1.3463,0,0,0,0,0,1.3123,1.3121,1.3143,1.3154,1.3226,1.3263,1.3272,1.3318,1.3336,1.3337,1.3375,1.3406,1.3466,1.3472,1.3481,1.3475,1.3532,1.3531,1.3529,1.3476,1.3469,1.3463,0,0,0,0,0,0,1.3054,1.313,1.3155,1.3174,1.3212,1.3274,1.3278,1.3309,1.334,1.3344,1.3398,1.341,1.3425,1.3452,1.3457,1.3478,1.3503,1.3503,1.346,1.3454,1.3448,1.3441,1.3504,0,0,0,0,0,1.3042,1.3067,1.3132,1.3142,1.316,1.3216,1.3233,1.3266,1.3306,1.3321,1.3361,1.3396,1.3424,1.344,1.3468,1.3478,1.3491,1.3478,1.3472,1.3468,1.3467,1.3474,1.3469,1.3522,1.3522,1.3522,0,0,1.3015,1.306,1.3072,1.313,1.3163,1.3186,1.3228,1.3251,1.3269,1.3324,1.3348,1.3378,1.3421,1.3437,1.3446,1.3459,1.3455,1.3465,1.3461,1.3463,1.3472,1.3467,1.3462,1.3521,1.3521,1.3521,0,0,1.2979,1.3016,1.3029,1.3062,1.3113,1.315,1.3153,1.3212,1.3234,1.326,1.3302,1.3322,1.3368,1.3397,1.3418,1.3395,1.3424,1.3402,1.3373,1.338,1.3376,1.3372,1.3364,1.336,1.3401,1.3401,1.3401,0,1.2939,1.2979,1.3031,1.3053,1.3077,1.3131,1.3144,1.3172,1.3228,1.3242,1.3258,1.3317,1.335,1.3374,1.3368,1.3383,1.3388,1.3396,1.3372,1.337,1.3367,1.336,1.3356,1.3398,1.3398,1.3399,1.3399,0,1.2927,1.2954,1.2958,1.3015,1.3039,1.3055,1.3109,1.3126,1.3157,1.3192,1.3216,1.3258,1.3296,1.3304,1.3333,1.3332,1.3339,1.3363,1.3389,1.3358,1.3352,1.335,1.3394,1.3395,1.3396,1.3397,0,0,1.2849,1.2936,1.2937,1.2963,1.3024,1.3044,1.3063,1.3103,1.3117,1.3154,1.317,1.3209,1.3231,1.3255,1.3288,1.3294,1.3273,1.3317,1.3318,1.3307,1.3274,1.3256,1.3252,1.3293,1.3293,1.3292,1.3271,0,1.2823,1.2863,1.2911,1.2934,1.2959,1.3011,1.3028,1.3065,1.3098,1.3123,1.3159,1.3185,1.3213,1.3228,1.3236,1.3273,1.3267,1.3276,1.3307,1.3308,1.3295,1.3249,1.323,1.3207,1.3268,1.3268,1.3268,0,1.2797,1.2834,1.286,1.292,1.2932,1.2946,1.2987,1.3011,1.3054,1.3078,1.3105,1.3141,1.3162,1.3186,1.3215,1.322,1.3236,1.3256,1.3256,1.326,1.3286,1.3252,1.3201,1.3197,1.3265,1.3265,1.3265,0,1.2737,1.2794,1.2817,1.2838,1.2908,1.2917,1.2946,1.2991,1.3012,1.3047,1.3061,1.3096,1.3116,1.3142,1.3186,1.3199,1.321,1.3237,1.3229,1.3228,1.3229,1.3228,1.3179,1.3239,1.3239,1.3239,1.3239,0,1.2702,1.2716,1.2792,1.2806,1.2822,1.2877,1.2891,1.2925,1.2964,1.2985,1.3031,1.3048,1.3106,1.313,1.3164,1.3183,1.3191,1.3209,1.3218,1.3205,1.3203,1.3216,1.3219,1.3238,1.3238,1.3238,1.3239,0,1.2638,1.269,1.2719,1.2784,1.28,1.281,1.2864,1.2879,1.2916,1.2941,1.2949,1.3006,1.3037,1.3084,1.3127,1.315,1.3163,1.3178,1.3149,1.3155,1.3144,1.3144,1.3102,1.3099,1.316,1.3159,1.3159,0,1.2612,1.2624,1.2692,1.271,1.2739,1.2767,1.279,1.2844,1.2866,1.2917,1.2925,1.296,1.2991,1.3037,1.308,1.3114,1.313,1.3113,1.3135,1.3122,1.313,1.3128,1.313,1.3107,1.3106,1.3105,1.3105,0,1.256,1.2586,1.2619,1.2661,1.2688,1.2722,1.2759,1.2771,1.2833,1.2854,1.2888,1.2912,1.2958,1.2991,1.3032,1.3059,1.3092,1.3098,1.3098,1.3084,1.3067,1.3077,1.3135,1.3098,1.3099,1.3099,1.31,1.31,1.2515,1.2529,1.2579,1.2614,1.2648,1.2682,1.27,1.274,1.277,1.2814,1.2843,1.2875,1.2918,1.2976,1.3002,1.3026,1.304,1.304,1.304,1.3039,1.3034,1.3064,1.3033,1.3034,1.3034,1.3034,1.3034,0,1.2465,1.2501,1.2533,1.2585,1.2612,1.2644,1.2687,1.2707,1.2735,1.2774,1.2805,1.2843,1.2876,1.2923,1.296,1.297,1.2986,1.2977,1.2977,1.2983,1.3019,1.3016,1.2964,1.2964,1.2964,1.2964,1.2964,1.2964,1.2443,1.2468,1.25,1.2543,1.2578,1.2612,1.2633,1.2664,1.2696,1.2738,1.2767,1.2799,1.2841,1.2881,1.2912,1.2925,1.2936,1.2923,1.294,1.2974,1.298,1.2986,1.2983,1.2925,1.2925,1.2902,1.2902,1.2901]}]]